Orbital Elements at Epoch 2459200.5 (2020-Dec-17.0) TDB
Reference: JPL 15 (heliocentric ecliptic J2000)
Element | Value | Uncertainty (1-sigma) | Units |
e | .09332385127444043 | 1.0405e-07 | |
a | 2.597226977827239 | 2.3656e-08 | au |
q | 2.354843753622526 | 2.7385e-07 | au |
i | 14.06911318874593 | 9.2478e-06 | deg |
node | 199.728287643909 | 1.4976e-05 | deg |
peri | 151.2100275159814 | 3.6506e-05 | deg |
M | 268.1198387675906 | 3.2668e-05 | deg |
tp | 2459590.695748147920 (2022-Jan-11.19574815) | 0.00014125 | TDB |
period | 1528.844393056009 4.19 | 2.0887e-05 5.719e-08 | d yr |
n | .2354719693090515 | 3.2171e-09 | deg/d |
Q | 2.839610202031953 | 2.5864e-08 | au |
|
| | Orbit Determination Parameters
Additional Information
|